{"data":{"norad_id":46032,"intl_designator":"2020-055F","name":"STARLINK-1555","alt_names":[],"object_type":"PAYLOAD","status":"ACTIVE","operator":null,"country":"US","launch_date":"2020-08-07","launch_site_code":"AFETR","launch_vehicle":null,"mission":null,"orbit_class":"UNKNOWN","rcs_meters":null,"size_class":null,"mass_kg":null,"dimensions":null,"purposes":["comms"],"wikipedia_slug":null,"has_3d_model":false,"image_url":null,"decayed_at":null,"tle_current":{"epoch":"2026-05-25T02:44:41.593920Z","epoch_age_seconds":58478,"freshness":"FRESH","line1":"1 46032U 20055F   26145.11437030  .00001007  00000+0  46144-4 0  9994","line2":"2 46032  53.1578 131.7108 0001237  79.0939 281.0201 15.30191404320598","mean_motion":15.30191404,"eccentricity":0.0001237,"inclination_deg":53.1578,"raan_deg":131.7108,"arg_perigee_deg":79.0939,"mean_anomaly_deg":281.0201,"bstar":4.6144e-5,"rev_number":32059,"period_min":94.105874352435,"perigee_km":474.39297282014,"apogee_km":476.08849847194,"semimajor_km":6853.377735646,"source":"CELESTRAK","updated_at":"2026-05-25T13:38:16.458962Z"}}}